THOR AGENA D R/B, 733

Orbit data source: Space-Track

THOR AGENA D R/B, 733 is space debris in SSO originally from a launch on Sun, 19 Jan 1964 UTC launched from the Air Force Western Test Range (AFWTR). Debris objects in space refer to the collection of defunct objects orbiting the Earth. Examples of debris include non-operational satellites, rocket bodies, and fragments generated from explosions, collisions, or faulty payload assembly.

Loading next visibility...
Identifier
733, 1964-002A
Orbit
SSO
Last TLE update
16 hours ago
Origin
Manufacturer
LMSC
Mission
Spacecraft
Bus & Motor
AGENA D, Unknown motor
Mass
600 kg wet, 600 kg dry
Launch date (UTC)
1964-01-19 (61 years ago)
Launch vehicle
Unknown
Launch site
Air Force Western Test Range (AFWTR)
Object type
Payload
Rocket body
Debris
Shape & HBR
Cyl + 1 Nozzle, 6.3 m
Radar Cross Section
8.306 m², Large (>1 m²)

Expand to show TLE details & history

TLE from 16 hours ago
0 THOR AGENA D R/B
1 00733U 64002A   25170.38811925  .00000184  00000-0  83481-4 0  9998
2 00733  99.1133 164.4990 0032147 306.2419  53.5794 14.33825701200566
Epoch: 2025-06-19T09:18Z
TLE epoch observation values (Epoch: 2025-06-19T09:18:53.503Z)
Latitude
0.00001°
Longitude
116.91955°
Altitude
768.277 km
Speed
7.477 km/s
True Right ascension
10h 57m 59s
True Declination
0° 00' 00"
Sunlit
Object was in daylight at epoch
Visualization orbit readout
Latitude
-58.15008°
Longitude
132.52486°
Altitude
778.452 km
Speed
7.476 km/s
Apparent Right ascension
02h 39m 21s
Apparent Declination
-82° 24' 41"
Sunlit
Object is in daylight
Visualization observer readout
Local Sidereal Time
12:40:58
Azimuth
185.426° SSW
Elevation
-46.396°
Doppler factor
1
Orbital elements
Apogee altitude
799.13 km
Perigee altitude
753.133 km
Semi-major axis
7,154.268 km
Eccentricity
0.00321
Inclination
99.1133°
RAAN
164.499°
Arg. of periapsis
306.2419°
True anomaly
Unknown
Mean anomaly
53.5794°
Eccentric anomaly
Unknown
Mean motion
3.5867 °/min
Orbital period
100.37 mins
BSTAR
0.000083481
Loading maneuver chart data...
Loading SW <> Apogee altitude chart data...
Loading historical data...
Loading historical data...
Loading historical data...
Loading historical data...
Loading historical data...
Loading historical data...
Loading historical data...
Other satellites on launch #2 in the year 1964 (1964-01-19 UTC)

THOR AGENA D R/B Visibility forecast

Observer location: undefined°, undefined°

Span
Click to sort rows by Start time (UTC) header in descending order
Start Az.
Max El. time (UTC)
Max El. Az.
Max El.
End time (UTC)
End Az.
8 mins2025-06-20 12:42:19.023Z8.85° NNE2025-06-20 12:45:19.023Z321.202° NNW44.004°2025-06-20 12:50:19.023Z201.297° SSW
5 mins2025-06-20 22:20:19.023Z91.006° ESE2025-06-20 22:22:19.023Z62.542° ENE18.245°2025-06-20 22:25:19.023Z23.545° NE
8 mins2025-06-20 23:57:19.023Z186.835° SSW2025-06-21 00:01:19.023Z270.121° WNW38.361°2025-06-21 00:05:19.023Z333.351° NNW
|